Погода в Сане-Фелиу-де-Гишольсе

Испания     41°46′49″N   3°01′37″E
темп.,
°C
ветер,
м/с
пор.,
м/с
влажн.,
%
обл.,
%
осадки,
мм/ч
давл.,
гПа
погр.,
м
11 мая, вт
вт1123:00+14юз510924 0.0 1009385
02:00+14юз589171 0.0 1009224
05:00+13юз34860 0.0 100867
08:00+14зсз237650 0.0 1008102
11:00+17вюв225989 0.0 1011739
14:00+17ююв466445 2.1 1013902
17:00+10ссв3988100 3.4 1017448
20:00+12с128169 3.9 1017230
12 мая, ср
ср1223:00+10зюз228439 0.0 1019107
02:00+10зюз22835 0.0 1018143
05:00+11з1286100 0.0 101671
08:00+11сз228497 0.0 101698
11:00+16юз26515 0.0 1014798
14:00+19юз8115115 0.0 10121129
17:00+21зюз812360 0.0 10091395
20:00+14с6126247 0.0 1013521
13 мая, чт
чт1323:00+13ссв496917 0.0 1014404
02:00+11сз22816 0.0 101468
05:00+11ссз227784 0.0 101473
08:00+11с1183100 0.6 101585
11:00+12в2285100 0.4 1015232
14:00+14вюв457244 0.5 1014708
17:00+14вюв547469 0.0 1013681
20:00+14в347836 0.0 1012368
14 мая, пт
пт1423:00+12зсз2286100 0.0 101252
02:00+11ссз228733 0.0 101159
05:00+11с238699 0.0 1010133
08:00+12св2476100 0.1 1011272
11:00+12с3485100 0.4 1013230
14:00+12ссв2285100 1.8 1014203
17:00+11ююз348989 5.1 1015309
20:00+14з1274100 5.1 1015115
15 мая, сб
сб1523:00+12зюз348886 0.0 1017169
02:00+11зюз34896 0.0 1017173
05:00+10зсз2291100 0.0 101767
08:00+12з118381 0.0 101687
11:00+16юз466790 0.0 1016619
14:00+18ююз676199 0.0 1015578
17:00+18юз6771100 0.0 1015482
20:00+17зюз337799 0.0 1015125